{"data":{"norad_id":43759,"intl_designator":"2018-099B","name":"SIRION PATHFINDER-2","alt_names":[],"object_type":"PAYLOAD","status":"ACTIVE","operator":null,"country":"US","launch_date":"2018-12-03","launch_site_code":"AFWTR","launch_vehicle":null,"mission":null,"orbit_class":"UNKNOWN","rcs_meters":null,"size_class":null,"mass_kg":null,"dimensions":null,"purposes":["tech_demo"],"wikipedia_slug":null,"has_3d_model":false,"image_url":null,"decayed_at":null,"tle_current":{"epoch":"2026-09-19T08:57:12.259584Z","epoch_age_seconds":111858,"freshness":"FRESH","line1":"1 43759U 18099B   26262.37305856  .00002637  00000+0  14377-3 0  9992","line2":"2 43759  97.4163 309.1879 0007939 343.9211  16.1769 15.15221255426885","mean_motion":15.15221255,"eccentricity":0.0007939,"inclination_deg":97.4163,"raan_deg":309.1879,"arg_perigee_deg":343.9211,"mean_anomaly_deg":16.1769,"bstar":0.00014377,"rev_number":42688,"period_min":95.035625671711,"perigee_km":514.83025588953,"apogee_km":525.78360516242,"semimajor_km":6898.443930526,"source":"CELESTRAK","updated_at":"2026-09-20T09:00:48.033169Z"}}}